Wetbulb
38.85 32.36 28.57 31.68 34.38 34.10 32.09 30.40 28.79 31.88 36.17 33.51 31.42 31.34 32.98 34.52 34.30 33.38 33.87 34.11 35.09 36.65 38.81 40.89 41.34 41.29 42.29 43.46 43.76 44.18 44.59 45.45 47.65 48.23 50.95 53.18 56.26 58.42 61.20 61.26 61.65 61.15 60.03 59.49
33.39 29.29 35.19 37.68 36.75 34.64 32.91 29.24 27.80 32.59 36.57 34.18 31.94 30.80 32.84 34.27 33.34 33.72 34.51 33.87 34.48 35.80 36.97 38.59 39.78 40.22 40.88 41.25 42.01 43.20 43.73 44.33 45.53 46.97 48.57 50.83 51.54 55.05 59.62 60.80 60.81 61.01 60.64 60.06
29.54 34.15 38.91 37.31 33.91 32.89 31.90 28.27 28.19 29.01 33.46 34.20 30.74 27.16 30.64 33.95 35.07 35.73 35.94 36.18 35.24 35.21 35.52 36.34 37.18 38.07 39.52 39.37 40.13 41.29 42.45 43.43 44.32 45.43 47.23 48.50 51.43 55.04 57.83 60.23 60.13 60.36 60.83 60.78
33.06 38.02 36.34 34.27 33.36 33.21 29.27 33.71 32.70 31.81 28.00 23.26 29.93 18.21 27.76 31.82 32.08 33.35 33.31 33.43 33.25 34.11 35.78 36.58 36.44 36.67 37.59 38.53 39.53 39.73 40.84 41.38 42.78 43.23 43.58 44.82 46.20 47.12 50.03 51.65 53.98 60.52 60.52 60.62
30.30 32.74 32.43 31.91 32.99 35.11 31.12 35.19 32.62 30.93 27.89 25.97 27.22 19.50 25.68 31.48 29.08 29.96 31.03 33.17 32.89 33.51 34.68 35.08 36.27 37.54 37.66 38.10 38.00 38.57 39.34 39.44 40.71 41.28 41.87 42.34 44.18 46.52 48.00 49.59 51.10 56.62 60.21 60.50
31.87 36.45 34.46 33.02 35.92 35.96 36.51 33.45 31.58 29.81 26.94 15.63 25.89 22.45 21.99 27.63 30.18 30.33 31.49 31.49 32.75 32.78 33.71 34.94 36.25 37.59 36.40 37.13 36.86 37.31 37.63 37.55 39.04 39.68 40.51 40.81 41.22 43.52 45.29 47.37 49.43 52.04 55.21 59.83
29.68 30.32 34.54 36.24 31.31 34.50 32.64 25.29 11.07 12.71 13.75 14.78 26.56 21.71 24.70 30.66 31.47 31.53 31.13 30.75 30.95 32.20 32.89 33.41 33.45 34.24 35.36 35.24 35.04 36.30 36.30 36.82 37.65 39.03 39.63 40.12 41.16 42.39 44.36 46.51 48.23 49.40 51.53 55.51
14.48 15.71 29.29 34.52 31.46 28.96 30.06 27.70 13.24 7.94 15.89 16.85 25.40 21.31 26.20 32.81 34.10 35.07 34.84 32.87 32.84 32.36 32.74 33.10 33.12 33.55 33.78 34.67 34.70 34.51 35.01 35.25 36.43 37.37 38.29 40.19 41.83 41.94 43.21 45.03 46.77 48.75 50.25 51.74
12.38 20.07 31.85 33.40 33.87 32.38 28.12 21.96 30.81 16.37 16.71 18.10 21.60 26.08 30.36 32.90 33.17 33.86 33.68 32.76 30.78 31.71 32.21 32.26 33.04 33.04 33.59 33.54 35.86 35.41 35.24 35.39 36.35 36.73 37.78 39.18 40.63 41.91 43.13 44.01 45.36 47.88 50.10 51.66
23.03 15.06 27.04 30.81 33.26 33.47 30.97 33.34 19.87 18.13 6.52 8.26 18.16 21.48 24.26 29.21 30.22 31.83 31.52 29.52 30.13 31.24 31.75 31.81 32.03 32.22 33.05 33.80 35.83 35.44 35.39 34.91 35.65 36.38 37.48 38.87 39.68 41.02 42.72 45.08 46.14 48.30 50.73 51.10
26.69 18.28 22.20 28.42 23.07 25.83 27.20 22.70 28.45 26.71 22.42 11.94 8.92 19.07 29.24 30.26 30.89 30.60 31.29 31.67 30.77 30.78 30.96 30.78 31.10 31.43 31.99 32.77 35.39 34.86 34.69 34.72 35.00 35.80 37.15 37.74 38.26 39.40 41.52 42.78 44.19 45.92 47.12 48.69
30.57 22.97 13.99 20.01 29.37 31.85 29.83 27.89 28.09 17.93 14.91 17.81 18.83 18.29 33.16 32.42 32.49 33.13 33.12 34.16 32.03 31.98 31.61 30.78 30.53 30.29 30.03 30.79 31.90 34.07 34.20 34.21 34.88 35.68 36.25 36.24 37.01 37.94 38.47 39.39 41.12 42.91 42.96 43.42
30.75 19.57 8.92 14.53 21.82 28.91 24.84 29.33 30.53 27.36 21.85 14.20 12.29 17.53 32.33 32.52 32.16 33.36 33.27 33.18 33.13 33.35 31.19 30.43 29.69 28.91 28.07 28.87 30.13 32.33 33.01 33.80 34.68 35.13 35.20 34.98 35.22 35.95 36.73 37.29 38.74 40.05 40.66 40.78
34.26 16.13 15.50 16.03 20.67 24.91 20.86 22.35 29.07 23.04 11.38 16.38 18.32 17.84 24.04 25.70 24.26 29.14 29.56 32.01 32.47 31.83 30.30 30.32 27.78 27.65 27.28 28.36 29.34 30.38 30.41 31.60 34.11 34.43 33.89 33.70 33.84 34.58 35.65 36.43 36.96 37.57 38.42 38.66
30.12 15.58 12.63 16.72 22.64 23.76 22.64 20.76 20.71 20.36 23.31 15.67 15.96 15.44 26.66 25.57 26.54 26.25 26.74 30.32 32.03 30.17 25.33 30.51 28.97 27.18 22.85 24.85 27.52 30.10 29.99 30.62 33.84 33.37 32.63 32.60 33.29 33.71 34.35 34.82 35.33 35.97 36.41 36.73
30.23 18.46 16.94 11.58 17.08 19.68 17.14 21.07 20.48 17.38 17.20 21.99 24.66 24.33 31.42 31.53 30.75 27.35 26.40 30.60 30.49 30.20 27.77 31.27 29.77 26.52 24.03 21.31 25.59 29.90 26.71 30.31 31.16 30.38 32.45 32.43 32.43 32.48 32.71 32.74 33.32 33.79 34.09 34.58
26.28 21.25 10.67 10.22 14.17 11.42 14.18 16.61 21.40 22.26 24.05 22.42 17.85 25.18 29.88 30.46 32.43 29.98 31.24 29.94 28.74 29.65 32.06 30.55 28.14 26.15 24.47 25.21 29.10 27.93 29.29 30.11 30.82 29.87 30.50 31.97 31.95 31.54 31.72 31.83 31.49 31.44 32.15 32.77
25.21 22.27 17.02 9.96 12.71 14.64 24.06 25.47 25.83 24.39 24.43 27.60 28.02 28.43 32.71 33.42 34.12 34.76 34.83 33.13 32.34 32.90 33.72 32.34 30.73 28.63 27.05 27.14 24.72 29.04 29.16 28.91 28.97 29.01 29.38 30.56 31.72 30.73 30.38 30.21 29.86 29.51 30.20 30.92
27.67 24.50 10.58 8.47 3.67 22.28 23.53 27.01 25.43 24.89 25.70 29.42 28.97 30.86 31.72 33.92 33.32 33.12 35.94 36.05 35.43 34.56 33.95 30.98 29.97 29.00 27.94 27.54 27.89 28.63 27.55 27.32 27.63 27.21 27.53 29.73 30.63 28.44 27.88 27.28 26.90 27.06 27.09 29.08
27.20 25.85 16.78 4.45 8.25 14.44 25.31 27.89 31.80 31.54 23.11 32.66 31.88 31.16 31.26 32.71 27.98 28.98 34.28 35.23 35.56 35.44 33.16 30.36 28.83 28.03 27.21 26.81 27.85 27.74 27.05 26.37 25.79 26.63 27.46 27.73 28.26 27.66 26.55 26.73 26.67 27.12 27.33 27.88
12.17 12.69 11.25 6.66 6.93 19.35 26.34 29.66 33.01 21.29 27.31 33.90 33.47 33.18 33.01 31.58 32.89 33.30 34.66 34.18 34.65 33.66 31.66 29.58 27.93 27.31 26.82 26.42 27.49 26.88 25.81 25.25 26.41 26.06 26.37 26.31 27.29 27.20 26.68 26.74 26.73 26.70 26.30 25.86
17.93 15.64 12.40 9.09 7.25 17.36 29.94 29.93 27.78 31.62 32.81 33.13 33.75 34.49 34.21 34.38 33.78 31.33 33.46 33.44 32.68 31.78 30.09 29.15 26.96 26.45 25.35 26.23 26.84 25.99 25.23 24.71 22.47 22.76 22.58 21.94 22.90 27.23 26.86 24.57 24.42 24.31 24.07 21.80
20.69 23.74 20.03 22.56 23.51 29.68 32.28 30.68 33.94 34.17 33.87 33.81 33.78 34.40 35.20 34.56 34.29 32.87 32.13 31.98 32.07 31.17 29.83 28.73 26.60 24.08 20.88 21.48 23.36 23.02 21.22 20.79 18.25 16.64 15.78 17.50 19.73 23.35 24.45 22.38 21.50 21.46 20.67 19.79
23.10 25.49 22.11 22.61 27.89 29.42 30.04 33.71 32.55 34.12 34.70 34.54 35.50 35.77 35.08 34.61 34.68 34.47 33.02 31.45 30.97 30.37 28.39 25.93 23.36 21.80 21.87 19.57 22.09 21.14 20.22 19.64 17.18 14.57 16.10 17.70 19.29 19.67 20.26 24.65 24.94 20.92 18.83 18.64
23.10 25.25 21.67 22.40 27.33 27.34 29.87 29.57 32.15 32.43 31.90 32.65 34.31 35.83 35.71 34.68 34.21 34.20 33.55 31.95 31.05 30.39 24.95 25.04 26.17 25.05 23.94 19.92 19.41 17.30 18.46 19.04 19.71 17.66 18.01 18.45 18.87 18.51 19.08 21.41 21.26 22.57 21.79 22.49
23.94 23.76 24.74 27.71 31.44 31.67 32.76 31.04 31.04 30.51 30.95 31.88 31.16 31.48 33.40 33.75 34.43 33.01 32.76 32.04 30.43 29.23 26.43 25.23 26.22 25.32 24.14 20.21 20.26 17.68 17.20 20.57 21.22 21.84 22.10 22.11 21.34 19.23 19.66 18.67 16.89 27.90 27.12 28.75
MSLP
1023.08 1024.41 1025.40 1025.36 1025.12 1024.93 1025.06 1025.08 1025.11 1024.22 1023.78 1023.66 1023.90 1024.30 1024.70 1024.95 1025.35 1025.56 1025.62 1025.62 1025.57 1025.35 1024.94 1024.69 1024.76 1024.80 1024.77 1024.30 1023.63 1022.96 1022.80 1023.42 1022.62 1021.80 1021.33 1020.98 1020.36 1020.16 1018.97 1018.91 1019.34 1019.76 1020.17 1020.61
1024.51 1025.46 1025.60 1025.22 1025.27 1025.36 1025.24 1025.48 1025.83 1024.92 1024.21 1024.34 1024.21 1024.49 1024.79 1024.90 1025.35 1025.61 1025.79 1025.84 1025.83 1025.75 1025.42 1025.25 1025.09 1024.79 1024.76 1024.59 1023.77 1023.71 1023.38 1023.50 1023.04 1022.39 1022.56 1021.92 1021.69 1020.67 1019.73 1019.36 1019.60 1019.79 1020.00 1020.42
1025.54 1026.15 1025.66 1025.46 1025.86 1025.85 1026.23 1026.41 1026.41 1026.29 1025.12 1024.54 1024.58 1024.75 1024.98 1025.03 1025.26 1025.53 1025.80 1025.94 1025.95 1025.79 1025.72 1025.52 1025.25 1025.20 1025.10 1024.75 1024.62 1024.48 1024.14 1023.49 1022.95 1022.76 1022.14 1021.52 1020.87 1020.50 1019.72 1019.64 1019.78 1019.72 1019.86 1020.08
1026.50 1026.41 1026.12 1026.01 1026.37 1026.44 1026.59 1026.60 1026.66 1026.51 1026.30 1025.88 1025.28 1025.60 1025.31 1025.12 1025.44 1025.68 1026.02 1026.02 1026.11 1025.98 1025.86 1025.74 1025.67 1025.61 1025.37 1025.30 1025.01 1024.97 1024.49 1024.33 1023.46 1023.10 1022.63 1021.94 1021.67 1021.15 1020.84 1021.13 1020.56 1019.66 1019.80 1019.84
1027.56 1027.24 1026.88 1026.78 1026.99 1026.96 1026.77 1026.78 1027.03 1026.97 1027.01 1026.73 1026.16 1026.16 1025.37 1025.27 1025.57 1025.73 1025.97 1026.04 1026.00 1026.07 1026.04 1026.07 1025.95 1025.99 1025.98 1025.80 1025.65 1025.51 1025.12 1024.85 1023.99 1023.72 1023.16 1022.83 1022.52 1021.86 1021.73 1021.34 1020.83 1019.95 1019.48 1019.74
1027.79 1027.47 1027.53 1027.41 1027.00 1027.00 1026.86 1026.84 1027.42 1027.49 1027.81 1027.88 1026.99 1026.69 1025.70 1025.28 1025.13 1025.37 1025.60 1025.81 1025.98 1026.01 1026.11 1026.14 1026.18 1026.09 1026.08 1025.94 1025.90 1025.56 1025.15 1024.83 1024.68 1024.29 1023.68 1023.28 1022.80 1022.29 1021.99 1021.54 1021.18 1020.53 1020.05 1019.40
1028.86 1028.29 1027.84 1027.61 1027.52 1027.09 1027.41 1028.02 1028.75 1029.49 1029.08 1029.12 1027.32 1026.88 1025.34 1024.87 1024.93 1025.16 1025.38 1025.49 1025.80 1025.97 1026.12 1026.25 1026.24 1026.50 1026.31 1025.99 1025.87 1025.62 1025.62 1025.11 1024.84 1024.69 1024.13 1023.71 1023.05 1022.66 1022.20 1021.81 1021.37 1020.82 1020.42 1019.68
1030.48 1029.44 1029.00 1028.48 1028.71 1028.48 1028.62 1029.18 1029.93 1030.90 1031.27 1030.05 1027.96 1026.74 1025.07 1024.72 1024.72 1024.78 1025.03 1025.29 1025.64 1025.98 1026.21 1026.25 1026.25 1026.59 1026.90 1026.56 1026.01 1025.78 1025.51 1025.32 1025.17 1024.75 1024.20 1023.71 1023.24 1022.79 1022.45 1022.15 1021.63 1020.94 1020.60 1019.98
1031.48 1030.66 1029.48 1029.15 1029.00 1029.16 1029.04 1029.64 1030.33 1030.93 1031.75 1031.17 1028.55 1026.38 1025.36 1024.86 1024.71 1024.72 1025.00 1025.37 1025.80 1026.10 1026.32 1026.49 1026.48 1026.44 1026.62 1026.92 1026.63 1025.87 1025.53 1025.23 1024.92 1024.68 1024.41 1023.89 1023.44 1023.00 1022.50 1022.06 1021.62 1021.18 1020.38 1019.77
1031.74 1031.74 1030.59 1029.73 1029.33 1029.25 1029.34 1029.68 1030.44 1031.33 1032.08 1031.70 1029.50 1027.44 1025.92 1024.97 1024.75 1024.82 1025.18 1025.55 1025.84 1026.23 1026.59 1026.82 1026.80 1026.79 1026.60 1026.48 1026.57 1026.55 1026.07 1025.47 1025.09 1024.68 1024.25 1023.79 1023.46 1022.95 1022.31 1021.76 1021.33 1020.71 1020.16 1019.42
1031.51 1032.34 1031.72 1030.99 1030.01 1029.72 1029.62 1030.27 1030.46 1031.40 1032.23 1032.35 1031.29 1028.03 1025.47 1024.99 1024.88 1025.02 1025.31 1025.66 1025.88 1026.25 1026.72 1027.06 1027.14 1027.10 1026.99 1026.77 1026.24 1026.02 1026.01 1026.01 1025.58 1024.79 1024.03 1023.62 1023.35 1022.95 1022.51 1022.00 1021.59 1020.96 1020.40 1019.85
1031.08 1031.90 1032.23 1032.05 1030.86 1030.16 1029.98 1030.40 1030.80 1032.13 1032.86 1032.78 1031.80 1028.22 1025.56 1025.25 1025.12 1025.20 1025.40 1025.57 1025.92 1026.31 1026.77 1027.12 1027.31 1027.42 1027.33 1027.08 1026.76 1026.32 1025.78 1025.40 1025.24 1025.05 1024.63 1024.22 1023.72 1023.23 1022.79 1022.44 1021.92 1021.39 1020.94 1020.59
1030.99 1032.16 1033.16 1032.70 1032.33 1031.10 1030.82 1030.71 1031.22 1032.05 1032.94 1033.17 1032.53 1028.30 1026.04 1025.69 1025.61 1025.58 1025.73 1025.89 1026.30 1026.56 1026.93 1027.36 1027.42 1027.62 1027.57 1027.35 1026.88 1026.42 1025.99 1025.46 1024.94 1024.46 1024.22 1024.17 1023.94 1023.49 1023.07 1022.79 1022.39 1021.86 1021.56 1021.41
1030.50 1032.12 1033.07 1033.19 1032.07 1031.51 1031.70 1031.45 1031.42 1032.16 1033.34 1032.79 1031.07 1028.42 1026.91 1026.21 1026.19 1025.92 1026.07 1026.12 1026.61 1027.03 1027.39 1027.62 1027.75 1027.79 1027.81 1027.56 1027.08 1026.61 1026.16 1025.71 1025.40 1025.08 1024.80 1024.57 1024.43 1024.17 1023.79 1023.32 1022.94 1022.66 1022.52 1022.18
1031.09 1032.59 1033.54 1032.86 1032.38 1032.22 1031.60 1031.36 1031.68 1032.03 1031.88 1031.78 1029.91 1029.07 1026.58 1026.25 1026.19 1025.85 1025.98 1026.07 1026.67 1026.96 1027.34 1027.69 1027.74 1027.88 1027.87 1027.84 1027.29 1026.88 1026.57 1026.06 1025.67 1025.47 1025.28 1025.14 1025.01 1024.74 1024.36 1023.96 1023.70 1023.54 1023.25 1023.04
1031.42 1032.61 1033.91 1033.92 1032.54 1032.28 1031.67 1030.92 1031.12 1031.41 1031.37 1030.48 1029.28 1027.76 1025.34 1025.01 1025.17 1025.63 1025.90 1026.23 1026.57 1026.75 1027.00 1027.34 1027.58 1027.64 1027.78 1027.92 1027.36 1027.00 1026.70 1026.39 1026.13 1026.09 1025.83 1025.72 1025.47 1025.19 1025.01 1024.84 1024.57 1024.36 1024.25 1024.11
1032.00 1032.76 1034.10 1033.97 1033.08 1032.08 1030.73 1028.64 1029.47 1029.41 1028.94 1028.43 1028.15 1025.45 1024.55 1024.34 1024.25 1024.58 1024.80 1025.43 1025.74 1026.08 1026.25 1026.70 1027.04 1027.23 1027.50 1027.49 1027.26 1027.04 1026.83 1026.50 1026.38 1026.43 1026.37 1026.22 1026.17 1025.95 1025.82 1025.70 1025.56 1025.61 1025.59 1025.54
1032.02 1033.06 1033.84 1034.46 1032.93 1031.05 1027.29 1026.46 1026.74 1026.90 1026.70 1026.14 1025.07 1024.13 1023.84 1023.33 1023.03 1023.11 1023.36 1023.99 1024.60 1024.99 1025.35 1025.77 1026.24 1026.79 1027.08 1027.17 1027.10 1026.94 1026.84 1026.77 1026.74 1026.78 1026.74 1026.66 1026.60 1026.53 1026.54 1026.42 1026.48 1026.54 1026.45 1026.24
1031.78 1032.70 1034.24 1034.77 1033.22 1029.11 1026.35 1025.58 1025.48 1025.48 1023.91 1023.32 1023.60 1022.96 1023.23 1022.87 1022.65 1021.98 1021.55 1022.18 1022.87 1023.84 1024.39 1024.87 1025.43 1026.18 1026.60 1026.89 1026.87 1026.94 1026.99 1026.97 1027.00 1027.18 1027.19 1027.03 1026.94 1026.95 1027.04 1026.92 1027.12 1027.07 1026.95 1027.01
1032.39 1032.58 1033.60 1034.42 1033.24 1029.23 1024.78 1023.80 1023.67 1023.76 1022.87 1021.29 1021.91 1022.02 1022.41 1022.71 1022.51 1021.54 1020.80 1021.38 1022.36 1023.02 1023.87 1024.55 1025.16 1025.90 1026.40 1026.69 1026.84 1026.93 1027.04 1027.15 1027.22 1027.31 1027.41 1027.29 1027.23 1027.32 1027.36 1027.37 1027.57 1027.60 1027.60 1027.87
1033.00 1033.14 1033.53 1033.53 1031.78 1027.04 1023.64 1023.25 1023.22 1022.88 1021.54 1020.57 1021.00 1021.36 1021.94 1022.29 1020.97 1020.69 1020.71 1021.29 1022.03 1022.78 1023.61 1024.56 1025.17 1025.49 1025.90 1026.35 1026.72 1027.11 1027.16 1027.28 1027.39 1027.47 1027.53 1027.51 1027.43 1027.50 1027.55 1027.69 1027.87 1028.01 1028.15 1028.40
1030.89 1031.20 1032.08 1032.32 1030.59 1025.72 1022.80 1023.24 1022.52 1020.64 1019.99 1019.98 1020.16 1020.37 1020.71 1020.95 1021.09 1021.09 1021.19 1021.53 1022.24 1022.98 1023.78 1024.35 1025.27 1025.67 1025.80 1026.05 1026.52 1026.89 1027.16 1027.24 1027.60 1027.71 1027.89 1027.86 1027.80 1027.75 1027.65 1027.69 1028.01 1028.22 1028.38 1028.75
1028.93 1027.10 1027.36 1027.04 1024.38 1022.26 1021.58 1020.44 1019.95 1019.95 1020.04 1019.90 1020.12 1020.15 1020.28 1020.70 1020.99 1021.18 1021.56 1021.87 1022.07 1022.73 1023.45 1024.07 1024.72 1025.46 1025.97 1026.16 1026.17 1026.64 1026.77 1027.20 1027.58 1027.90 1028.16 1028.22 1028.21 1028.10 1027.98 1028.02 1028.20 1028.51 1028.66 1029.05
1026.46 1025.79 1026.03 1025.32 1021.99 1021.57 1021.09 1020.10 1019.80 1019.52 1019.77 1019.65 1019.66 1019.88 1020.13 1020.33 1020.46 1020.75 1021.20 1021.84 1022.15 1022.38 1023.07 1023.64 1024.57 1025.29 1025.73 1025.92 1026.04 1025.99 1026.33 1026.82 1027.45 1028.06 1028.06 1027.96 1028.10 1028.09 1028.02 1028.12 1028.30 1028.56 1029.02 1029.00
1024.48 1024.63 1024.52 1023.70 1021.56 1020.81 1019.73 1019.48 1018.91 1018.75 1019.16 1019.38 1019.22 1019.45 1019.67 1020.04 1020.13 1020.52 1020.89 1021.08 1021.48 1021.95 1022.56 1023.12 1023.63 1024.03 1024.43 1025.08 1025.61 1025.76 1025.99 1026.43 1027.01 1027.36 1027.51 1027.63 1027.65 1027.79 1027.98 1027.97 1028.05 1028.18 1028.57 1028.56
1022.59 1021.93 1021.89 1020.30 1018.86 1018.61 1018.12 1017.64 1017.77 1018.57 1018.71 1018.46 1018.90 1019.25 1019.24 1019.61 1019.50 1019.63 1020.12 1020.11 1020.57 1021.14 1021.67 1022.25 1022.61 1023.12 1023.21 1023.92 1024.69 1025.23 1025.46 1025.86 1026.14 1026.56 1026.86 1027.05 1027.40 1027.75 1027.96 1028.21 1028.22 1027.85 1028.00 1027.99
Wind_Speed
6 11 5 6 4 2 2 4 6 6 4 5 1 4 5 5 6 7 7 7 7 7 5 6 8 7 8 8 8 9 10 7 7 6 5 4 3 4 3 0 5 4 5 6
7 6 5 7 6 5 1 4 5 8 5 4 4 2 4 5 3 4 5 6 7 6 6 6 7 7 8 8 10 10 8 7 5 4 2 1 3 4 3 1 4 5 6 7
7 3 7 3 7 7 5 3 4 5 8 3 3 4 4 3 5 5 5 5 5 5 6 6 7 7 6 9 9 10 10 10 7 7 4 4 3 4 3 2 3 5 7 8
5 5 5 6 4 4 1 2 4 7 6 2 3 4 4 4 5 4 4 5 4 6 5 5 6 6 7 6 6 8 9 9 9 10 7 7 4 4 5 5 7 5 8 8
3 5 5 5 3 4 4 6 5 3 4 3 5 5 5 5 3 2 3 4 3 4 5 6 5 5 5 5 5 5 6 6 8 9 8 6 5 4 5 5 8 9 7 9
2 0 2 2 5 4 8 3 2 1 1 4 4 4 4 4 3 2 2 3 2 4 5 5 4 5 4 4 5 6 7 6 6 6 7 8 7 8 5 5 5 5 5 6
6 2 1 3 4 5 8 6 4 8 7 4 3 3 8 3 2 2 1 1 2 4 5 5 6 5 6 7 6 7 7 8 8 8 7 6 6 7 8 6 4 6 5 3
4 7 5 7 2 1 4 3 5 4 3 6 6 4 4 2 4 4 4 2 4 4 4 6 7 5 4 5 6 6 7 7 7 8 9 8 7 3 4 6 6 5 5 4
4 5 2 3 2 2 6 6 3 4 2 1 4 4 2 1 5 6 5 4 4 5 5 5 6 7 5 4 6 9 9 10 10 9 8 7 8 7 6 7 5 5 6 5
4 3 2 2 1 3 3 2 4 4 4 4 6 6 5 4 0 3 2 2 2 3 5 5 6 6 6 5 5 5 7 9 9 9 8 7 7 7 7 6 7 6 7 6
4 5 6 3 1 3 3 3 1 3 3 4 2 7 6 5 3 2 2 2 1 1 2 3 4 5 6 6 7 6 6 6 7 9 9 9 8 8 7 6 7 7 6 7
6 5 2 6 5 2 2 2 3 5 5 1 3 10 2 5 4 2 5 4 3 0 2 3 4 5 6 6 6 6 7 7 7 6 6 7 8 8 7 7 7 6 6 7
4 1 4 9 7 5 2 4 2 4 4 5 5 9 2 4 5 6 6 6 3 5 4 5 5 5 5 5 5 6 6 7 8 8 8 8 8 8 8 8 7 7 7 7
4 2 7 7 6 4 3 3 5 6 4 4 8 9 7 7 6 8 7 5 6 7 5 6 6 4 4 4 5 5 6 6 7 7 7 8 9 9 8 8 8 8 7 8
3 3 2 5 5 3 6 6 7 9 6 7 6 6 12 9 9 7 5 3 6 7 4 6 6 5 4 4 4 4 5 5 5 8 8 8 8 8 9 9 9 9 9 8
1 2 3 6 2 1 5 8 9 4 3 11 13 21 12 7 3 3 6 5 7 8 6 7 7 6 5 4 3 3 3 5 5 6 7 7 7 8 9 9 10 10 10 10
5 4 3 7 2 3 6 9 12 5 6 8 7 13 4 4 4 5 7 7 8 8 8 8 8 6 5 5 2 2 3 3 5 5 5 6 5 5 6 6 8 8 8 8
5 3 3 5 5 3 7 5 7 7 6 16 9 7 6 6 5 7 8 7 9 8 8 7 6 5 6 4 3 2 4 4 5 5 5 4 4 5 5 7 7 7 5 6
1 4 2 3 3 8 2 5 8 8 8 16 18 13 7 5 3 8 11 11 10 8 7 7 7 6 5 6 4 4 4 4 4 4 4 4 4 4 3 6 5 4 5 6
2 4 5 3 2 5 5 3 5 4 6 6 14 8 7 6 2 6 3 6 8 8 7 8 8 6 6 5 5 5 5 5 4 2 2 3 4 4 5 5 5 3 5 5
2 2 6 3 4 12 6 6 6 6 7 4 8 6 8 7 5 4 4 4 6 7 9 7 7 8 8 7 6 5 5 5 5 4 3 3 4 4 5 5 4 4 4 5
9 10 5 3 1 10 7 5 8 4 1 3 4 6 8 7 5 4 5 7 8 9 7 8 7 7 7 7 6 6 6 4 2 4 3 2 2 2 3 5 3 4 5 4
5 9 9 12 11 2 11 6 7 3 3 3 2 4 6 7 9 7 6 8 9 9 8 7 8 6 4 5 6 7 5 6 4 3 4 2 2 1 2 3 3 3 3 3
5 4 2 3 4 13 11 11 6 6 8 6 6 5 5 7 7 9 8 7 7 8 9 7 7 8 8 7 7 5 7 7 6 5 4 4 5 3 2 2 2 2 1 1
6 8 7 7 10 7 13 12 11 9 7 9 8 9 10 8 9 8 7 9 9 8 6 8 11 11 12 8 8 6 7 8 7 5 4 3 3 3 2 2 3 3 2 3
7 10 8 11 11 7 6 5 6 9 11 12 9 6 11 10 13 8 9 8 7 9 7 8 11 9 10 10 9 8 8 10 9 8 6 6 5 3 3 3 1 4 5 2
Wind_Direction
35 58 31 332 15 330 291 23 347 319 319 21 340 146 121 83 50 35 38 38 34 24 12 47 37 43 33 32 35 19 9 355 352 12 8 322 353 307 324 232 154 164 166 161
37 54 313 308 31 358 35 46 340 309 336 339 318 284 145 125 120 94 66 42 32 12 17 35 39 26 37 17 19 8 1 357 356 13 271 256 291 281 271 258 197 184 174 161
94 271 308 351 35 25 66 75 314 278 316 290 312 322 155 145 119 101 68 67 25 9 21 32 29 23 30 28 16 8 350 343 4 357 335 335 292 232 249 288 216 209 196 186
74 347 353 45 65 24 83 9 324 315 15 318 89 284 196 193 136 90 78 71 30 7 25 42 35 32 26 19 21 359 1 347 4 359 352 4 350 344 14 330 322 213 215 199
274 359 0 18 336 340 254 320 278 283 323 18 340 63 295 167 169 124 95 83 26 18 33 44 38 47 27 22 12 346 6 350 1 348 353 350 342 335 320 324 320 319 197 203
106 135 64 270 285 252 302 309 221 325 73 36 282 107 275 239 183 155 44 23 17 28 17 24 50 44 22 15 19 344 1 360 353 339 349 346 339 334 327 325 317 330 318 202
346 358 319 346 334 1 9 37 351 7 14 228 316 34 244 202 175 161 179 287 54 32 14 7 14 47 17 10 7 3 357 353 355 350 349 332 322 318 317 309 295 310 317 328
108 343 5 341 67 220 336 68 136 187 321 289 321 253 276 176 175 208 213 176 99 51 22 8 0 28 57 9 351 348 351 349 346 348 348 339 330 312 314 316 318 309 277 276
93 298 311 55 328 52 317 40 277 97 50 18 256 275 294 262 275 266 220 108 78 40 20 16 1 356 13 48 27 1 356 353 354 352 347 341 337 334 318 305 293 290 298 286
224 19 284 311 11 334 86 241 30 356 43 334 304 298 244 286 7 30 46 127 93 48 13 1 1 2 0 9 32 25 4 352 349 347 347 348 343 340 329 313 313 324 311 285
127 108 290 16 308 182 27 360 358 125 129 152 297 274 218 196 195 295 302 223 176 13 4 358 358 5 9 2 358 6 10 9 1 351 352 357 354 352 351 351 345 342 3 10
187 144 221 225 260 14 98 228 136 126 278 237 156 274 260 185 183 214 263 271 195 81 26 3 357 4 3 354 355 0 2 358 357 357 12 12 5 2 10 10 6 11 38 40
181 327 15 347 352 356 210 197 153 113 81 221 141 261 312 285 272 263 260 257 286 303 341 339 345 354 359 352 349 349 0 358 360 1 10 16 15 11 16 18 21 31 49 56
101 112 166 194 210 136 188 249 195 134 127 222 230 287 281 275 268 276 271 245 264 282 305 310 316 331 339 348 356 351 354 356 11 14 18 19 14 12 14 20 27 33 37 55
137 197 168 256 256 264 224 192 206 186 197 172 252 233 282 266 260 264 272 251 235 257 264 273 280 297 299 329 350 5 6 16 15 22 22 21 18 19 21 27 28 33 39 50
196 264 89 293 337 293 264 234 207 228 256 274 268 283 263 253 127 290 268 232 232 243 244 247 255 267 269 269 294 11 6 27 53 34 32 25 25 33 34 34 33 37 36 42
174 134 83 274 310 328 324 221 186 193 218 159 183 226 219 226 224 249 255 215 227 225 213 213 223 223 228 235 215 79 55 40 61 53 40 31 23 38 44 45 50 43 49 51
156 122 110 257 352 6 240 145 180 193 223 217 261 242 215 210 223 227 211 207 224 221 210 193 194 191 208 221 230 129 90 71 56 49 48 37 45 60 59 60 57 53 43 54
100 135 68 122 215 293 276 202 163 176 278 208 223 249 231 239 303 280 217 200 205 200 197 185 177 173 179 187 183 141 116 101 83 49 52 31 42 66 68 74 65 55 50 49
76 72 117 67 140 223 242 175 174 177 304 198 197 223 208 181 153 258 304 174 189 184 171 167 164 155 166 194 180 152 147 134 115 74 52 53 64 79 78 83 71 54 59 53
130 54 158 178 243 282 229 159 144 83 236 163 184 199 168 213 214 195 123 135 161 172 166 159 170 173 184 175 170 180 165 175 162 147 119 80 82 102 98 92 93 92 79 70
178 151 181 99 108 278 146 84 175 214 285 183 196 199 191 216 228 208 178 168 166 172 171 172 175 199 183 175 172 181 195 169 155 136 123 109 80 135 124 115 108 98 104 97
226 185 179 187 211 248 206 196 209 174 180 219 240 257 220 213 214 212 221 200 193 192 186 179 182 190 217 203 181 179 205 156 155 129 130 122 83 58 98 94 95 97 116 129
240 169 182 61 259 229 225 247 241 211 220 217 216 219 209 226 230 227 212 217 213 194 199 177 167 192 215 211 209 195 167 161 154 160 168 167 159 159 116 111 133 113 107 85
191 133 174 266 273 272 252 227 233 238 226 242 229 214 220 211 237 226 232 217 212 210 186 180 194 200 212 193 213 196 177 165 172 176 187 193 179 169 151 150 159 148 193 173
190 173 172 222 213 182 230 208 199 209 225 231 221 223 231 204 231 208 231 221 207 206 184 193 205 210 208 190 206 200 184 183 176 185 192 194 183 182 172 157 40 177 176 187